Weather History for Mount Sterling, KY

Change the Weather History Date:

Friday, October 19, 2012

  Actual Average Record
Temperature  
Mean Temperature 52 °F -  
Max Temperature 59 °F 61 °F 59 °F (2014)
Min Temperature 44 °F 38 °F 39 °F (2013)
Degree Days  
Heating Degree Days 14    
Growing Degree Days 2 (Base 50)    
Moisture  
Dew Point 39 °F    
Average Humidity 66    
Maximum Humidity 87    
Minimum Humidity 44    
Precipitation  
Precipitation 0.00 in - - ()
Sea Level Pressure  
Sea Level Pressure 29.71 in    
Wind  
Wind Speed 8 mph ()    
Max Wind Speed 20 mph    
Max Gust Speed 29 mph    
Visibility 10.0 miles    
Events Rain    
Averages and records for this station are not official NWS values.
T = Trace of Precipitation, MM = Missing Value Source: Averaged Metar Reports

Daily Weather History Graph

Daily Weather History Graph

Search for Another Location

Airport:

Trip Planner

Search our weather history database for the weather conditions in past years. The results will help you decide how hot, cold, wet, or windy it might be!

Date:

Astronomy

Oct. 19, 2012 Rise Set
Actual Time 7:48 AM EDT 6:52 PM EDT
Civil Twilight 7:22 AM EDT 7:18 PM EDT
Nautical Twilight 6:51 AM EDT 7:49 PM EDT
Astronomical Twilight 6:21 AM EDT 8:19 PM EDT
Moon 12:27 PM EDT (10/19) 10:32 PM EDT (10/19)
Length of Visible Light 11h 56m
Length of Day
11h 03m
Waxing Crescent, 23% of the Moon is Illuminated
Oct 19
Waxing Crescent
Oct 21
First Quarter
Oct 29
Full
Nov 6
Last Quarter
Nov 13
New

Hourly Weather History & Observations

Time (EDT) Temp. Windchill Dew Point Humidity Pressure Visibility Wind Dir Wind Speed Gust Speed Precip Events Conditions
2:15 AM 50.0 °F - 35.6 °F 58% 29.73 in 10.0 mi SSW 8.1 mph - N/A   Overcast
2:35 AM 50.0 °F - 35.6 °F 58% 29.73 in 10.0 mi SW 5.8 mph - N/A   Overcast
2:55 AM 48.2 °F - 35.6 °F 62% 29.72 in 10.0 mi SW 4.6 mph - N/A   Scattered Clouds
3:15 AM 48.2 °F - 35.6 °F 62% 29.72 in 10.0 mi SW 5.8 mph - N/A   Mostly Cloudy
3:35 AM 48.2 °F - 35.6 °F 62% 29.71 in 10.0 mi SSW 6.9 mph - N/A   Scattered Clouds
3:55 AM 46.4 °F 42.4 °F 37.4 °F 71% 29.71 in 10.0 mi SSW 8.1 mph - N/A   Clear
4:15 AM 46.4 °F 42.9 °F 37.4 °F 71% 29.71 in 10.0 mi SSW 6.9 mph - N/A   Clear
4:35 AM 46.4 °F 42.4 °F 37.4 °F 71% 29.70 in 10.0 mi SSW 8.1 mph - N/A   Clear
4:55 AM 46.4 °F 42.4 °F 37.4 °F 71% 29.70 in 10.0 mi SSW 8.1 mph - N/A   Clear
5:15 AM 46.4 °F 42.4 °F 37.4 °F 71% 29.70 in 10.0 mi SSW 8.1 mph - N/A   Clear
5:35 AM 46.4 °F 42.4 °F 37.4 °F 71% 29.69 in 10.0 mi SSW 8.1 mph - N/A   Clear
5:55 AM 46.4 °F 42.4 °F 37.4 °F 71% 29.69 in 10.0 mi SSW 8.1 mph - N/A   Clear
6:15 AM 46.4 °F 41.9 °F 37.4 °F 71% 29.69 in 10.0 mi SSW 9.2 mph - N/A   Clear
6:35 AM 46.4 °F 42.9 °F 37.4 °F 71% 29.69 in 10.0 mi SSW 6.9 mph - N/A   Clear
6:55 AM 44.6 °F 40.7 °F 37.4 °F 76% 29.69 in 10.0 mi SSW 6.9 mph - N/A   Clear
7:15 AM 44.6 °F 39.7 °F 35.6 °F 71% 29.69 in 10.0 mi SSW 9.2 mph - N/A   Clear
7:35 AM 46.4 °F 41.9 °F 35.6 °F 66% 29.68 in 10.0 mi SSW 9.2 mph - N/A   Scattered Clouds
7:55 AM 46.4 °F 41.9 °F 35.6 °F 66% 29.68 in 10.0 mi SSW 9.2 mph - N/A   Mostly Cloudy
8:15 AM 46.4 °F 41.5 °F 35.6 °F 66% 29.68 in 10.0 mi SSW 10.4 mph - N/A   Mostly Cloudy
8:35 AM 50.0 °F - 35.6 °F 58% 29.68 in 10.0 mi SSW 9.2 mph - N/A   Overcast
8:55 AM 50.0 °F - 37.4 °F 62% 29.67 in 10.0 mi SSW 9.2 mph - N/A   Overcast
9:15 AM 50.0 °F - 37.4 °F 62% 29.68 in 10.0 mi SSW 9.2 mph - N/A   Overcast
9:35 AM 51.8 °F - 37.4 °F 58% 29.67 in 10.0 mi SSW 10.4 mph - N/A   Overcast
9:55 AM 51.8 °F - 37.4 °F 58% 29.67 in 10.0 mi SSW 9.2 mph - N/A   Overcast
10:15 AM 53.6 °F - 39.2 °F 58% 29.67 in 10.0 mi SW 8.1 mph - N/A   Overcast
10:35 AM 53.6 °F - 39.2 °F 58% 29.67 in 10.0 mi SW 9.2 mph - N/A   Overcast
10:55 AM 55.4 °F - 37.4 °F 51% 29.66 in 10.0 mi WSW 11.5 mph 20.7 mph N/A   Mostly Cloudy
11:15 AM 55.4 °F - 37.4 °F 51% 29.66 in 10.0 mi WSW 13.8 mph 21.9 mph N/A   Mostly Cloudy
11:35 AM 57.2 °F - 37.4 °F 48% 29.66 in 10.0 mi WSW 13.8 mph 19.6 mph N/A   Scattered Clouds
11:55 AM 59.0 °F - 37.4 °F 45% 29.67 in 10.0 mi SW 12.7 mph 18.4 mph N/A   Scattered Clouds
12:15 PM 59.0 °F - 37.4 °F 45% 29.66 in 10.0 mi WSW 10.4 mph 21.9 mph N/A   Scattered Clouds
12:35 PM 57.2 °F - 35.6 °F 44% 29.66 in 10.0 mi West 18.4 mph 24.2 mph N/A   Scattered Clouds
12:55 PM 57.2 °F - 37.4 °F 48% 29.67 in 10.0 mi WSW 16.1 mph 23.0 mph N/A   Scattered Clouds
1:15 PM 57.2 °F - 37.4 °F 48% 29.66 in 10.0 mi WSW 12.7 mph 17.3 mph N/A   Mostly Cloudy
1:35 PM 57.2 °F - 35.6 °F 44% 29.65 in 10.0 mi WSW 16.1 mph 20.7 mph N/A   Mostly Cloudy
1:55 PM 55.4 °F - 35.6 °F 47% 29.64 in 10.0 mi West 15.0 mph 26.5 mph N/A   Overcast
2:15 PM 55.4 °F - 37.4 °F 51% 29.65 in 10.0 mi WSW 17.3 mph 23.0 mph N/A   Overcast
2:35 PM 55.4 °F - 37.4 °F 51% 29.64 in 10.0 mi WSW 10.4 mph 24.2 mph N/A   Overcast
2:55 PM 55.4 °F - 37.4 °F 51% 29.64 in 10.0 mi WSW 13.8 mph 24.2 mph N/A   Overcast
3:15 PM 55.4 °F - 37.4 °F 51% 29.65 in 10.0 mi WSW 19.6 mph 28.8 mph N/A   Overcast
3:35 PM 55.4 °F - 37.4 °F 51% 29.66 in 10.0 mi West 15.0 mph 20.7 mph N/A   Overcast
3:55 PM 51.8 °F - 41.0 °F 67% 29.68 in 10.0 mi West 17.3 mph 23.0 mph N/A Rain Light Rain
4:15 PM 51.8 °F - 42.8 °F 71% 29.69 in 10.0 mi West 13.8 mph 27.6 mph N/A Rain Light Rain
4:35 PM 50.0 °F - 42.8 °F 76% 29.70 in 10.0 mi West 15.0 mph 27.6 mph N/A Rain Light Rain
5:15 PM 48.2 °F - 42.8 °F 82% 29.71 in 10.0 mi West 12.7 mph 20.7 mph N/A   Overcast
5:35 PM 48.2 °F - 42.8 °F 82% 29.73 in 10.0 mi West 12.7 mph 19.6 mph N/A   Overcast
5:55 PM 48.2 °F - 42.8 °F 82% 29.74 in 10.0 mi West 8.1 mph - N/A   Overcast
6:15 PM 48.2 °F - 42.8 °F 82% 29.74 in 10.0 mi West 8.1 mph - N/A   Overcast
6:35 PM 46.4 °F 43.5 °F 42.8 °F 87% 29.75 in 10.0 mi WNW 5.8 mph - N/A   Overcast
6:55 PM 46.4 °F 43.5 °F 42.8 °F 87% 29.76 in 10.0 mi WNW 5.8 mph - N/A   Overcast
7:15 PM 46.4 °F 44.3 °F 42.8 °F 87% 29.76 in 10.0 mi West 4.6 mph - N/A   Overcast
7:35 PM 48.2 °F - 42.8 °F 82% 29.76 in 10.0 mi West 4.6 mph - N/A   Overcast
7:55 PM 46.4 °F 44.3 °F 42.8 °F 87% 29.76 in 10.0 mi West 4.6 mph - N/A   Overcast
8:15 PM 48.2 °F - 41.0 °F 76% 29.76 in 10.0 mi West 5.8 mph - N/A   Overcast
8:35 PM 48.2 °F - 41.0 °F 76% 29.76 in 10.0 mi West 4.6 mph - N/A   Overcast
8:55 PM 48.2 °F - 41.0 °F 76% 29.76 in 10.0 mi WSW 6.9 mph - N/A   Overcast
9:15 PM 48.2 °F - 41.0 °F 76% 29.78 in 10.0 mi WSW 5.8 mph - N/A   Overcast
9:35 PM 50.0 °F - 41.0 °F 71% 29.78 in 10.0 mi West 3.5 mph - N/A   Overcast
9:55 PM 50.0 °F - 41.0 °F 71% 29.78 in 10.0 mi West 5.8 mph - N/A   Overcast
10:15 PM 50.0 °F - 41.0 °F 71% 29.78 in 10.0 mi West 10.4 mph - N/A   Overcast
10:35 PM 50.0 °F - 41.0 °F 71% 29.78 in 10.0 mi West 8.1 mph - N/A   Overcast
10:55 PM 50.0 °F - 41.0 °F 71% 29.79 in 10.0 mi West 8.1 mph - N/A   Overcast
11:15 PM 50.0 °F - 41.0 °F 71% 29.79 in 10.0 mi West 8.1 mph 18.4 mph N/A   Overcast
11:35 PM 50.0 °F - 41.0 °F 71% 29.79 in 10.0 mi West 9.2 mph - N/A   Overcast
11:55 PM 48.2 °F - 41.0 °F 76% 29.79 in 10.0 mi West 6.9 mph - N/A   Overcast